Regional Weather Roundup
Issued by NWS

Home | Current Version | Previous Version | Graphics & Text | Print | Product List | Glossary On
Versions: 1 2 3 4 5 6 7 8 9 10 11 12 13 14 15 16 17 18 19 20 21 22 23 24 25 26 27 28 29 30 31 32 33 34 35 36 37 38 39 40 41 42 43 44 45 46 47 48 49 50
719
ASUS44 KJAN 172303
RWRMS

MISSISSIPPI HOURLY WEATHER ROUNDUP
NATIONAL WEATHER SERVICE JACKSON MS
600 PM CDT WED SEP 17 2014

NOTE: "FAIR: INDICATES FEW OR NO CLOUDS BELOW 12,000 FEET WITH NO
SIGNIFICANT WEATHER AND/OR OBSTRUCTIONS TO VISIBILITY.

MSZ001>002-007>008-010>013-018>021-025>028-034>036-180000-
NORTHWEST MISSISSIPPI

CITY           SKY/WX    TMP DP  RH WIND       PRES   REMARKS
CLARKSDALE     FAIR      79  68  69 NE12      29.94F
CLEVELAND      FAIR      87  69  54 E3        29.91S HX  91
GREENWOOD      SUNNY     86  68  54 NE8       29.91S
GREENVILLE     SUNNY     89  64  43 NE5       29.90R HX  90
GRENADA        FAIR      81  68  65 NE6       29.94R
OXFORD         PTSUNNY   75  66  73 CALM      29.98S
TUNICA         CLOUDY    75  64  69 NE6       29.95F
$$

MSZ003>006-009-014>017-022>024-029>033-037>039-180000-
NORTHEAST MISSISSIPPI

CITY           SKY/WX    TMP DP  RH WIND       PRES   REMARKS
COLUMBUS AFB   SUNNY     81  65  59 N5        29.93F
CORINTH        MOCLDY    75  63  64 NW5       29.96R
GOLDN TRIANGLE MOSUNNY   84  66  54 N5        29.93F
STARKVILLE     FAIR      81  64  57 N5        29.93F
TUPELO         MOSUNNY   79  65  62 NW3       29.95R
$$

MSZ040-058-180000-
CENTRAL MISSISSIPPI

CITY           SKY/WX    TMP DP  RH WIND       PRES   REMARKS
JACKSON INTL   MOSUNNY   88  68  51 E7        29.90F HX  91
JACKSON HAWKNS SUNNY     88  67  49 MISG      29.91S HX  91
MERIDIAN KEY   SUNNY     88  65  46 NE9       29.90S HX  90
MERIDIAN NAS   MOSUNNY   86  66  51 N6        29.91F
RAYMOND        FAIR      90  90 100 CALM      29.90S HX 129
VICKSBURG      SUNNY     89  68  49 VRB3      29.89S HX  93
$$

MSZ059>079-180000-
SOUTH MISSISSIPPI

CITY           SKY/WX    TMP DP  RH WIND       PRES   REMARKS
BROOKHAVEN     MOCLDY    82  72  69 MISG      29.92S
HATTIESBURG    SUNNY     89  68  49 CALM      29.90R HX  93
MCCOMB         PTSUNNY   86  69  56 SW3       29.91S HX  90
NATCHEZ        MOSUNNY   84  73  70 SW3       29.91S HX  91
PINE BELT      MOSUNNY   88  68  51 SW3       29.92R HX  91
$$

MSZ080>082-180000-
COASTAL MISSISSIPPI

CITY           SKY/WX    TMP DP  RH WIND       PRES   REMARKS
BAY ST LOUIS   SUNNY     82  70  65 S5        29.90R
BILOXI         SUNNY     84  72  65 SW7       29.90R HX  90
PASCAGOULA     PTSUNNY   84  73  69 S8        29.90R HX  90
GULFPORT       MOSUNNY   85  72  65 S7        29.89R HX  91
$$



USA.gov is the U.S. government's official web portal to all federal, state and local government web resources and services.